Вернуться в каталог

ICEYE-X74

АктивенНаукаSSO
NORAD 68500·PAYLOAD·🇺🇸 United States

Запущен Mar 30, 2026 с Vandenberg Space Force Base

Loading…

Ближайшие Пролёты (ближайшие 24 часа)

TLE

СвежийSource: Space-Track

Эпоха: Sep 14, 2026, 07:58 UTC

1 68500U 26067CN  26257.33242164  .00001483  00000-0  15126-3 0  9991
2 68500  97.7712 214.2727 0003901  83.8362 276.3301 14.92157458 25018

Отслеживайте ICEYE-X74 в реальном времени с AllMySat

Download on the App Store